User: anonymous   Login
Location: Vancouver
(49.2500°N, 123.1330°W)
Time: 00:09:44
(UTC-08:00)
Language:

ERS-2 - Orbit

View from above orbital plane
View from above orbital plane
View from above satellite
View from above satellite

Ground track
Ground track

The orbit data is extracted from the following two-line orbital elements,

1 23560U 95021A   17054.51234504  .00002303  00000-0  11018-3 0  9996
2 23560  98.5456  31.6683 0003394 353.6060   6.5128 15.20249080158113
Epoch (UTC): 23 February 2017 12:17:46
Eccentricity: 0.0003394
inclination: 98.5456°
perigee height: 503 km
apogee height: 507 km
right ascension of ascending node: 31.6683°
argument of perigee: 353.6060°
revolutions per day: 15.20249080
mean anomaly at epoch: 6.5128°
orbit number at epoch: 15811

The dashed part of the orbit path shows where the satellite is in the earth's shadow,  

DLR